N6AZ LIBP-LICZ

Flight info

Callsign N6AZ
Flight time 0h 47m
Altitude 23000
Route TEA SOR CDC SIG
Aircraft F104/L-V/N

Departure

Time 2026-04-24 15:08
Airport Abruzzo Airport (LIBP)

Arrival

Time 2026-04-24 15:55
Airport Sigonella Navy Air Base (LICZ)
Time Latitude Longitude Altitude Speed Heading
2026-04-24 15:02 42.43768 14.19332 35 ft 0 kts 353°
2026-04-24 15:07 42.43789 14.19327 35 ft 11 kts 332°
2026-04-24 15:07 42.43913 14.19175 32 ft 27 kts 290°
2026-04-24 15:07 42.43802 14.18987 36 ft 50 kts 223°
2026-04-24 15:07 42.43285 14.18447 40 ft 138 kts 216°
2026-04-24 15:08 42.42150 14.17273 370 ft 248 kts 222°
2026-04-24 15:08 42.40642 14.15729 2230 ft 299 kts 194°
2026-04-24 15:08 42.38721 14.15047 5236 ft 336 kts 193°
2026-04-24 15:08 42.36540 14.14392 8725 ft 350 kts 194°
2026-04-24 15:09 42.34622 14.13663 12974 ft 340 kts 190°
2026-04-24 15:09 42.32422 14.13500 16129 ft 332 kts 159°
2026-04-24 15:09 42.31057 14.14205 20760 ft 228 kts 144°
2026-04-24 15:09 42.29830 14.15105 22132 ft 232 kts 142°
2026-04-24 15:10 42.28453 14.16481 20500 ft 189 kts 131°
2026-04-24 15:10 42.28378 14.16561 20324 ft 171 kts 279°
2026-04-24 15:11 42.28311 14.16633 20113 ft 158 kts 220°
2026-04-24 15:14 42.28128 14.16809 19157 ft 153 kts 40°
2026-04-24 15:15 42.27631 14.17027 14384 ft 200 kts 122°
2026-04-24 15:15 42.27348 14.16967 7875 ft 438 kts 248°
2026-04-24 15:15 42.25567 14.14033 3956 ft 520 kts 207°
2026-04-24 15:15 42.22112 14.12644 8047 ft 589 kts 195°
2026-04-24 15:16 42.18605 14.12569 15198 ft 566 kts 172°
2026-04-24 15:16 42.15277 14.13089 22390 ft 584 kts 173°
2026-04-24 15:16 42.11161 14.13650 24375 ft 614 kts 172°
2026-04-24 15:16 42.06923 14.14377 23109 ft 604 kts 171°
2026-04-24 15:17 42.02749 14.15020 22804 ft 609 kts 175°
2026-04-24 15:17 41.98558 14.15416 22781 ft 601 kts 178°
2026-04-24 15:17 41.94453 14.14934 23076 ft 599 kts 190°
2026-04-24 15:17 41.90319 14.13840 22054 ft 612 kts 190°
2026-04-24 15:18 41.86202 14.12557 22614 ft 597 kts 195°
2026-04-24 15:18 41.82195 14.11130 23444 ft 606 kts 194°
2026-04-24 15:18 41.78084 14.09681 22931 ft 616 kts 194°
2026-04-24 15:18 41.73979 14.08241 22996 ft 613 kts 194°
2026-04-24 15:19 41.69820 14.06784 23065 ft 614 kts 194°
2026-04-24 15:19 41.65723 14.05348 23025 ft 614 kts 194°
2026-04-24 15:19 41.61556 14.04080 22993 ft 613 kts 187°
2026-04-24 15:19 41.57361 14.03342 23074 ft 612 kts 188°
2026-04-24 15:20 41.53124 14.02552 23033 ft 614 kts 187°
2026-04-24 15:20 41.48934 14.01675 23049 ft 613 kts 189°
2026-04-24 15:20 41.44751 14.00709 23030 ft 613 kts 189°
2026-04-24 15:20 41.40549 13.99750 23023 ft 612 kts 189°
2026-04-24 15:21 41.36352 13.98787 23027 ft 612 kts 189°
2026-04-24 15:21 41.32166 13.97830 23024 ft 612 kts 189°
2026-04-24 15:21 41.27948 13.97141 22966 ft 609 kts 180°
2026-04-24 15:21 41.23709 13.97594 22985 ft 603 kts 166°
2026-04-24 15:22 41.19760 13.99278 23009 ft 599 kts 153°
2026-04-24 15:22 41.16245 14.02083 22991 ft 595 kts 140°
2026-04-24 15:22 41.12932 14.05425 23101 ft 596 kts 148°
2026-04-24 15:23 41.05220 14.09491 22950 ft 602 kts 156°
2026-04-24 15:23 40.97401 14.13471 22992 ft 603 kts 158°
2026-04-24 15:23 40.93483 14.15436 23000 ft 603 kts 158°
2026-04-24 15:24 40.81712 14.21320 22994 ft 604 kts 158°
2026-04-24 15:25 40.75183 14.24584 22998 ft 604 kts 158°
2026-04-24 15:25 40.66019 14.29161 22995 ft 605 kts 158°
2026-04-24 15:26 40.54486 14.35655 22939 ft 601 kts 144°
2026-04-24 15:27 40.44456 14.45546 22966 ft 602 kts 140°
2026-04-24 15:27 40.34831 14.55996 22989 ft 602 kts 140°
2026-04-24 15:28 40.21822 14.69847 23000 ft 603 kts 140°
2026-04-24 15:29 40.15377 14.76903 22998 ft 604 kts 140°
2026-04-24 15:30 40.05759 14.87453 23068 ft 604 kts 139°
2026-04-24 15:31 39.92912 15.01588 23041 ft 606 kts 139°
2026-04-24 15:32 39.80228 15.15903 23076 ft 605 kts 138°
2026-04-24 15:33 39.67915 15.30765 23104 ft 606 kts 135°
2026-04-24 15:33 39.58875 15.42223 23143 ft 608 kts 137°
2026-04-24 15:34 39.52537 15.49505 23114 ft 609 kts 138°
2026-04-24 15:35 39.42843 15.60317 23132 ft 615 kts 138°
2026-04-24 15:35 39.36408 15.67540 23104 ft 613 kts 139°
2026-04-24 15:35 39.33179 15.71182 23110 ft 613 kts 139°
2026-04-24 15:36 39.29985 15.74785 23108 ft 614 kts 138°
2026-04-24 15:36 39.23544 15.82029 23119 ft 614 kts 139°
2026-04-24 15:36 39.20215 15.85460 23156 ft 615 kts 142°
2026-04-24 15:37 39.16880 15.88816 23125 ft 615 kts 141°
2026-04-24 15:37 39.13520 15.92283 23107 ft 615 kts 137°
2026-04-24 15:37 39.10504 15.96148 23147 ft 613 kts 136°
2026-04-24 15:37 39.07445 15.99904 23150 ft 616 kts 135°
2026-04-24 15:38 39.04322 16.03764 23127 ft 616 kts 135°
2026-04-24 15:38 39.01254 16.07553 23127 ft 616 kts 135°
2026-04-24 15:38 38.98175 16.11354 23125 ft 616 kts 135°
2026-04-24 15:38 38.95069 16.15181 23130 ft 616 kts 135°
2026-04-24 15:39 38.91996 16.18971 23131 ft 616 kts 135°
2026-04-24 15:39 38.88898 16.22788 23131 ft 616 kts 135°
2026-04-24 15:39 38.85812 16.26582 23128 ft 617 kts 135°
2026-04-24 15:39 38.82738 16.30357 23129 ft 618 kts 135°
2026-04-24 15:40 38.79620 16.34180 23125 ft 618 kts 135°
2026-04-24 15:40 38.76507 16.37994 23114 ft 618 kts 135°
2026-04-24 15:40 38.72978 16.40968 22390 ft 615 kts 171°
2026-04-24 15:40 38.69013 16.39808 22266 ft 606 kts 213°
2026-04-24 15:41 38.65399 16.36905 22114 ft 615 kts 219°
2026-04-24 15:41 38.62070 16.33517 22637 ft 612 kts 220°
2026-04-24 15:41 38.58697 16.30106 22835 ft 616 kts 218°
2026-04-24 15:41 38.55334 16.26824 23417 ft 615 kts 221°
2026-04-24 15:42 38.51948 16.23432 23328 ft 618 kts 220°
2026-04-24 15:42 38.48579 16.20049 23077 ft 620 kts 220°
2026-04-24 15:42 38.45230 16.16738 24172 ft 605 kts 219°
2026-04-24 15:42 38.41854 16.13461 23376 ft 626 kts 219°
2026-04-24 15:43 38.38398 16.10094 22789 ft 619 kts 219°
2026-04-24 15:43 38.35005 16.06845 23051 ft 618 kts 219°
2026-04-24 15:43 38.31575 16.03548 23107 ft 619 kts 219°
2026-04-24 15:43 38.28117 16.00206 23073 ft 620 kts 219°
2026-04-24 15:44 38.24692 15.96900 23077 ft 619 kts 219°
2026-04-24 15:44 38.21286 15.93615 23073 ft 619 kts 219°
2026-04-24 15:44 38.17868 15.90307 23079 ft 618 kts 219°
2026-04-24 15:44 38.14450 15.87000 23083 ft 618 kts 219°
2026-04-24 15:45 38.11050 15.83707 23094 ft 618 kts 219°
2026-04-24 15:45 38.07597 15.80364 23093 ft 618 kts 219°
2026-04-24 15:45 38.04183 15.77070 23101 ft 618 kts 219°
2026-04-24 15:45 38.00794 15.73803 23096 ft 618 kts 219°
2026-04-24 15:46 37.97359 15.70499 23107 ft 619 kts 219°
2026-04-24 15:46 37.93919 15.67197 23096 ft 618 kts 219°
2026-04-24 15:46 37.90526 15.63948 23091 ft 618 kts 219°
2026-04-24 15:46 37.87079 15.60648 23083 ft 617 kts 220°
2026-04-24 15:47 37.83675 15.57402 23082 ft 617 kts 219°
2026-04-24 15:47 37.80246 15.54086 23109 ft 617 kts 219°
2026-04-24 15:47 37.76860 15.50794 23174 ft 617 kts 219°
2026-04-24 15:47 37.73446 15.47476 23092 ft 621 kts 219°
2026-04-24 15:48 37.70159 15.44273 18442 ft 625 kts 219°
2026-04-24 15:48 37.66760 15.41053 14976 ft 619 kts 217°
2026-04-24 15:48 37.63347 15.37971 13159 ft 602 kts 216°
2026-04-24 15:48 37.60065 15.34928 8020 ft 635 kts 221°
2026-04-24 15:49 37.57081 15.31133 4814 ft 603 kts 232°
2026-04-24 15:49 37.55024 15.26870 4467 ft 552 kts 244°
2026-04-24 15:49 37.53415 15.22642 4846 ft 529 kts 245°
2026-04-24 15:49 37.51879 15.18479 4493 ft 522 kts 244°
2026-04-24 15:50 37.50365 15.14392 3836 ft 515 kts 250°
2026-04-24 15:50 37.49017 15.10252 3077 ft 499 kts 247°
2026-04-24 15:50 37.47752 15.06661 2095 ft 405 kts 245°
2026-04-24 15:50 37.46591 15.03373 1801 ft 418 kts 246°
2026-04-24 15:51 37.45536 15.00131 1914 ft 378 kts 255°
2026-04-24 15:51 37.44877 14.97227 2266 ft 309 kts 253°
2026-04-24 15:51 37.44257 14.94778 2133 ft 285 kts 253°
2026-04-24 15:51 37.43735 14.92431 1771 ft 275 kts 255°
2026-04-24 15:52 37.43212 14.90177 1638 ft 276 kts 253°
2026-04-24 15:52 37.42521 14.87800 1971 ft 294 kts 248°
2026-04-24 15:52 37.41484 14.85601 2893 ft 303 kts 218°
2026-04-24 15:52 37.39676 14.85376 3653 ft 278 kts 148°
2026-04-24 15:53 37.38963 14.87591 2356 ft 316 kts 72°
2026-04-24 15:53 37.39894 14.90241 1775 ft 366 kts 67°
2026-04-24 15:53 37.40797 14.93234 2190 ft 352 kts 71°
2026-04-24 15:53 37.41356 14.96152 2185 ft 362 kts 78°
2026-04-24 15:54 37.41817 14.99399 2626 ft 390 kts 78°
2026-04-24 15:54 37.41241 15.02481 3616 ft 379 kts 145°
2026-04-24 15:54 37.38922 15.02013 3151 ft 393 kts 245°
2026-04-24 15:54 37.39082 14.98851 1646 ft 321 kts 292°
2026-04-24 15:55 37.39684 14.96569 896 ft 247 kts 284°
2026-04-24 15:55 37.40054 14.94620 313 ft 223 kts 280°
2026-04-24 15:55 37.40285 14.92837 85 ft 173 kts 278°
2026-04-24 15:55 37.40368 14.92158 88 ft 41 kts 279°
2026-04-24 15:56 37.40409 14.91860 92 ft 28 kts 314°
2026-04-24 15:56 37.40579 14.91679 96 ft 36 kts 317°
2026-04-24 15:56 37.40741 14.91407 97 ft 32 kts 289°
2026-04-24 15:56 37.40766 14.91310 97 ft 0 kts 285°
2026-04-24 15:57 37.40767 14.91307 97 ft 0 kts 301°
2026-04-24 15:57 37.40768 14.91303 97 ft 0 kts 284°
2026-04-24 15:57 37.40769 14.91303 97 ft 0 kts 285°
2026-04-24 15:59 37.40769 14.91302 97 ft 0 kts 285°
2026-04-24 16:38 37.40768 14.91290 97 ft 7 kts 237°
2026-04-24 16:38 37.40655 14.91205 97 ft 16 kts 197°
2026-04-24 16:38 37.40616 14.91100 96 ft 20 kts 276°
2026-04-24 16:39 37.40567 14.90920 96 ft 28 kts 179°
2026-04-24 16:39 37.40464 14.91300 93 ft 89 kts 96°
2026-04-24 16:39 37.40323 14.92592 86 ft 220 kts 98°
2026-04-24 16:39 37.40060 14.94843 735 ft 317 kts 97°
2026-04-24 16:40 37.39738 14.98166 1726 ft 453 kts 96°
2026-04-24 16:40 37.39317 15.02590 4048 ft 567 kts 96°
2026-04-24 16:40 37.38836 15.07680 6789 ft 654 kts 96°
2026-04-24 16:40 37.38243 15.13596 5204 ft 707 kts 96°
2026-04-24 16:41 37.37781 15.19848 4634 ft 729 kts 90°
2026-04-24 16:41 37.38231 15.26229 4221 ft 737 kts 77°
2026-04-24 16:41 37.39883 15.32258 4569 ft 731 kts 63°
2026-04-24 16:41 37.42585 15.37611 5284 ft 728 kts 52°
2026-04-24 16:42 37.45584 15.42850 5267 ft 740 kts 54°
2026-04-24 16:42 37.48545 15.48119 5215 ft 747 kts 54°
2026-04-24 16:42 37.51569 15.53511 5231 ft 753 kts 54°
2026-04-24 16:42 37.54576 15.58874 5228 ft 758 kts 54°
2026-04-24 16:43 37.57673 15.64249 5221 ft 723 kts 50°
2026-04-24 16:43 37.60907 15.68337 5240 ft 626 kts 38°
2026-04-24 16:43 37.64268 15.71690 5251 ft 613 kts 39°
2026-04-24 16:43 37.67597 15.75057 5212 ft 611 kts 38°
2026-04-24 16:44 37.70893 15.78394 5223 ft 610 kts 38°
2026-04-24 16:44 37.74232 15.81776 5220 ft 610 kts 38°
2026-04-24 16:44 37.77522 15.85109 5226 ft 610 kts 38°
2026-04-24 16:44 37.80818 15.88452 5229 ft 610 kts 38°
2026-04-24 16:45 37.84132 15.91815 5231 ft 611 kts 38°
2026-04-24 16:45 37.87523 15.95089 5223 ft 612 kts 32°
2026-04-24 16:45 37.91242 15.97598 5244 ft 611 kts 25°
2026-04-24 16:45 37.95187 15.99696 5224 ft 611 kts 22°
2026-04-24 16:46 37.99122 16.01776 5219 ft 611 kts 22°
2026-04-24 16:46 38.01392 16.00125 6375 ft 545 kts 259°
2026-04-24 16:46 38.00252 15.94940 8015 ft 651 kts 253°
2026-04-24 16:46 37.98864 15.89648 11625 ft 626 kts 270°
2026-04-24 16:47 37.99832 15.84900 17336 ft 620 kts 288°
2026-04-24 16:47 38.01001 15.79681 21095 ft 643 kts 290°
2026-04-24 16:47 38.02819 15.74727 25192 ft 668 kts 303°
2026-04-24 16:47 38.05422 15.69672 28708 ft 725 kts 307°
2026-04-24 16:48 38.08519 15.64183 30653 ft 832 kts 307°
2026-04-24 16:48 38.12281 15.57961 29576 ft 891 kts 332°
2026-04-24 16:48 38.16739 15.58399 32336 ft 606 kts 32°
2026-04-24 16:48 38.20345 15.59922 34992 ft 503 kts 338°
2026-04-24 16:49 38.21888 15.56934 32612 ft 470 kts 244°
2026-04-24 16:49 38.19443 15.54510 28291 ft 525 kts 189°
2026-04-24 16:49 38.15821 15.53849 26470 ft 499 kts 178°
2026-04-24 16:49 38.13275 15.55168 27715 ft 337 kts 112°
2026-04-24 16:50 38.12991 15.56876 27377 ft 291 kts 58°
2026-04-24 16:50 38.13828 15.58450 23277 ft 292 kts 55°
2026-04-24 16:50 38.15515 15.60270 18933 ft 416 kts 11°
2026-04-24 16:50 38.18257 15.59429 20393 ft 445 kts 336°
2026-04-24 16:51 38.21046 15.57661 22969 ft 469 kts 330°
2026-04-24 16:51 38.23819 15.55513 26493 ft 519 kts 328°
2026-04-24 16:51 38.26832 15.53170 29843 ft 526 kts 331°
2026-04-24 16:51 38.30027 15.50663 32533 ft 572 kts 328°
2026-04-24 16:52 38.33083 15.47795 34701 ft 536 kts 322°
2026-04-24 16:52 38.35843 15.44751 36751 ft 528 kts 319°
2026-04-24 16:52 38.38542 15.41479 36218 ft 555 kts 320°
2026-04-24 16:52 38.41356 15.38337 35866 ft 516 kts 322°
2026-04-24 16:53 38.43981 15.35509 35904 ft 480 kts 322°
2026-04-24 16:53 38.46457 15.32820 35907 ft 451 kts 321°
2026-04-24 16:53 38.48766 15.30293 35904 ft 422 kts 321°
2026-04-24 16:53 38.50919 15.27926 35897 ft 395 kts 321°
2026-04-24 16:54 38.52912 15.25720 35874 ft 367 kts 321°
2026-04-24 16:54 38.54747 15.23669 35758 ft 343 kts 322°
2026-04-24 16:54 38.56452 15.21748 35852 ft 313 kts 322°
2026-04-24 16:54 38.57967 15.20023 36002 ft 270 kts 321°
2026-04-24 16:55 38.59457 15.18321 35471 ft 340 kts 322°
2026-04-24 16:55 38.61375 15.16187 35133 ft 392 kts 321°
2026-04-24 16:55 38.63576 15.13761 35051 ft 454 kts 321°
2026-04-24 16:55 38.66156 15.10951 34613 ft 502 kts 322°
2026-04-24 16:56 38.68632 15.08250 38302 ft 479 kts 321°
2026-04-24 16:56 38.71309 15.05368 38962 ft 535 kts 322°
2026-04-24 16:56 38.74278 15.02191 36257 ft 585 kts 321°
2026-04-24 16:56 38.77282 14.98946 34320 ft 545 kts 321°
2026-04-24 16:57 38.79979 14.95994 34563 ft 481 kts 321°
2026-04-24 16:57 38.82321 14.93386 34652 ft 405 kts 322°
2026-04-24 16:57 38.84261 14.91198 34521 ft 348 kts 321°
2026-04-24 16:57 38.86046 14.89171 34550 ft 348 kts 321°
2026-04-24 16:58 38.87956 14.87024 34758 ft 385 kts 321°
2026-04-24 16:58 38.90126 14.84756 34704 ft 416 kts 332°
2026-04-24 16:58 38.92818 14.83132 34642 ft 446 kts 344°
2026-04-24 16:58 38.95938 14.82389 34663 ft 473 kts
2026-04-24 16:59 38.99219 14.83062 34749 ft 487 kts 21°
2026-04-24 16:59 39.02356 14.84859 34733 ft 498 kts 25°
2026-04-24 16:59 39.08729 14.88670 34611 ft 512 kts 25°
2026-04-24 17:00 39.11913 14.90766 34638 ft 512 kts 34°
2026-04-24 17:00 39.16241 14.97769 34682 ft 531 kts 89°
2026-04-24 17:00 39.14944 15.02529 34013 ft 624 kts 141°
2026-04-24 17:01 39.06304 15.04881 31410 ft 765 kts 238°
2026-04-24 17:01 39.05931 14.98571 31452 ft 744 kts 309°
2026-04-24 17:02 39.13361 14.90557 35113 ft 703 kts 335°
2026-04-24 17:02 39.17860 14.87998 36655 ft 708 kts 341°
2026-04-24 17:02 39.21927 14.86208 37094 ft 541 kts 345°
2026-04-24 17:02 39.25207 14.84755 36743 ft 483 kts 343°
2026-04-24 17:03 39.31663 14.82908 36932 ft 474 kts 356°
2026-04-24 17:03 39.34943 14.82468 36899 ft 473 kts
2026-04-24 17:04 39.41276 14.80983 36768 ft 433 kts 346°
2026-04-24 17:04 39.46324 14.79459 35929 ft 322 kts 350°
2026-04-24 17:04 39.48524 14.78806 36388 ft 350 kts 348°
2026-04-24 17:05 39.50895 14.77428 37332 ft 419 kts 338°
2026-04-24 17:05 39.53429 14.75931 36643 ft 368 kts 340°
2026-04-24 17:05 39.57534 14.73521 36830 ft 308 kts 343°
2026-04-24 17:06 39.59459 14.72377 36607 ft 300 kts 339°
2026-04-24 17:06 39.63366 14.70203 36876 ft 330 kts 347°
2026-04-24 17:06 39.65670 14.69134 36857 ft 370 kts 347°
2026-04-24 17:07 39.67369 14.68431 36918 ft 403 kts 347°
2026-04-24 17:07 39.71357 14.67083 36736 ft 500 kts 348°
2026-04-24 17:07 39.79112 14.65134 36778 ft 612 kts 354°
2026-04-24 17:08 39.88059 14.63586 36846 ft 670 kts 354°
2026-04-24 17:08 39.92490 14.62819 36752 ft 631 kts 354°
2026-04-24 17:08 39.96556 14.62048 36703 ft 544 kts 349°
2026-04-24 17:09 40.03288 14.59301 36717 ft 485 kts 343°
2026-04-24 17:09 40.09370 14.56638 36723 ft 434 kts 343°
2026-04-24 17:10 40.12131 14.55411 36790 ft 411 kts 344°
2026-04-24 17:10 40.19556 14.52043 36685 ft 347 kts 345°
2026-04-24 17:11 40.26501 14.48840 36932 ft 369 kts 344°
2026-04-24 17:12 40.37524 14.43694 36626 ft 267 kts 344°